Location: Arbon
(43.0005°N, 0.7472°E)
Time: 16:56:23
(UTC+00:00)

Transit 2A - All Passes

Search period start: 04 December 2020 00:00
Search period end: 14 December 2020 00:00
Orbit: 595 x 963 km, 66.7° (Epoch: 03 December)

Date Brightness Start Highest point End Pass type
(mag) Time Alt. Az. Time Alt. Az. Time Alt. Az.
04 Dec - 01:20:18 10° NW 01:25:18 60° WSW 01:29:49 10° SSE night (unlit)
04 Dec - 14:18:58 10° SE 14:22:35 16° ESE 14:26:09 10° ENE daylight
04 Dec - 15:58:48 10° SSW 16:05:09 89° WNW 16:11:10 10° NNE daylight
04 Dec - 17:44:34 10° W 17:49:07 21° NW 17:53:29 10° N visible
04 Dec - 23:03:50 10° N 23:07:08 17° NE 23:10:14 10° ENE night (unlit)
05 Dec - 00:46:03 10° NNW 00:51:11 90° WNW 00:55:47 10° SSE night (unlit)
05 Dec - 13:47:40 10° ESE 13:48:43 10° E 13:49:45 10° E daylight
05 Dec - 15:24:44 10° SSW 15:31:00 67° ESE 15:36:57 10° NE daylight
05 Dec - 17:09:30 10° WSW 17:14:41 27° NW 17:19:37 10° NNE visible
05 Dec - 22:30:16 10° N 22:32:34 13° NNE 22:34:47 10° ENE night (unlit)
06 Dec - 00:11:54 10° NNW 00:17:00 62° NE 00:21:34 10° SE night (unlit)
06 Dec - 01:56:36 10° WNW 01:59:28 16° WSW 02:02:12 10° SW night (unlit)
06 Dec - 14:50:53 10° S 14:56:54 48° ESE 15:02:39 10° NE daylight
06 Dec - 16:34:38 10° WSW 16:40:18 35° NW 16:45:40 10° NNE daylight
06 Dec - 23:37:50 10° NNW 23:42:44 42° NE 23:47:09 10° ESE night (unlit)
07 Dec - 01:21:39 10° NW 01:25:34 24° WSW 01:29:12 10° SSW night (unlit)
07 Dec - 14:17:15 10° S 14:22:51 34° ESE 14:28:13 10° NE daylight
07 Dec - 15:59:58 10° SW 16:05:59 46° NW 16:11:40 10° NNE daylight
07 Dec - 17:48:18 10° NW 17:50:38 12° NNW 17:52:55 10° N visible
07 Dec - 23:03:51 10° NNW 23:08:23 30° NE 23:12:33 10° ESE night (unlit)
08 Dec - 00:47:05 10° NW 00:51:36 36° WSW 00:55:45 10° S night (unlit)
08 Dec - 13:43:55 10° SSE 13:48:51 25° ESE 13:53:36 10° NE daylight
08 Dec - 15:25:30 10° SW 15:31:44 63° NW 15:37:36 10° NNE daylight
08 Dec - 17:12:33 10° WNW 17:16:03 15° NW 17:19:26 10° N visible
08 Dec - 22:29:56 10° N 22:33:59 23° NE 22:37:44 10° E night (unlit)
09 Dec - 00:12:41 10° NW 00:17:35 55° WSW 00:22:00 10° SSE night (unlit)
09 Dec - 13:11:02 10° SE 13:14:54 17° ESE 13:18:40 10° ENE daylight
09 Dec - 14:51:12 10° SSW 14:57:31 85° WNW 15:03:28 10° NNE daylight
09 Dec - 16:37:11 10° W 16:41:32 20° NW 16:45:42 10° N daylight
09 Dec - 21:56:08 10° N 21:59:31 17° NE 22:02:40 10° E night (unlit)
09 Dec - 23:38:25 10° NNW 23:43:29 83° WSW 23:48:01 10° SSE night (unlit)
10 Dec - 12:39:09 10° ESE 12:41:00 11° ESE 12:42:50 10° E daylight
10 Dec - 14:17:05 10° SSW 14:23:21 71° ESE 14:29:17 10° NE daylight
10 Dec - 16:02:04 10° W 16:07:05 25° NW 16:11:51 10° N daylight
10 Dec - 21:22:33 10° N 21:24:58 13° NNE 21:27:17 10° ENE night (unlit)
10 Dec - 23:04:16 10° NNW 23:09:18 66° ENE 23:13:51 10° SE night (unlit)
11 Dec - 00:49:14 10° WNW 00:51:42 14° WSW 00:54:04 10° SW night (unlit)
11 Dec - 13:43:11 10° S 13:49:15 51° ESE 13:55:00 10° NE daylight
11 Dec - 15:27:10 10° WSW 15:32:42 33° NW 15:37:55 10° NNE daylight
11 Dec - 20:49:48 10° NNE 20:50:21 10° NNE 20:50:54 10° NE night (unlit)
11 Dec - 22:30:11 10° NNW 22:35:03 45° NE 22:39:28 10° SE night (unlit)
12 Dec - 00:14:08 10° WNW 00:17:48 22° WSW 00:21:15 10° SSW night (unlit)
12 Dec - 13:09:30 10° S 13:15:11 37° ESE 13:20:36 10° NE daylight
12 Dec - 14:52:27 10° WSW 14:58:23 43° NW 15:03:56 10° NNE daylight
12 Dec - 16:41:11 10° NW 16:43:05 11° NNW 16:44:55 10° NNW daylight
12 Dec - 21:56:10 10° NNW 22:00:43 32° NE 22:04:53 10° ESE night (unlit)
12 Dec - 23:39:30 10° NW 23:43:51 32° WSW 23:47:52 10° S night (unlit)
13 Dec - 12:36:06 10° SSE 12:41:10 26° ESE 12:46:01 10° NE daylight
13 Dec - 14:17:56 10° SW 14:24:07 59° NW 14:29:53 10° NNE daylight
13 Dec - 16:05:16 10° WNW 16:08:29 15° NW 16:11:34 10° N daylight
13 Dec - 21:22:15 10° N 21:26:20 24° NE 21:30:06 10° E night (unlit)
13 Dec - 23:05:04 10° NW 23:09:51 50° WSW 23:14:11 10° S night (unlit)
